User: anonymous   Login
Location: Bonny Doon Airfield
(37.0704°N, 122.1252°W)
Time: 08:38:35
(UTC-07:00)
Language:

BREEZE M DEB (TANK) - Orbit

View from above orbital plane
View from above orbital plane
View from above satellite
View from above satellite

Ground track
Ground track

The orbit data is extracted from the following two-line orbital elements,

1 33437U 08057B   15182.80804314  .00001335  00000-0  23738-3 0  9993
2 33437 049.5523 138.1655 5018618 275.5821 033.2048 05.57923045133779
Epoch (UTC): 01 July 2015 19:23:34
Eccentricity: 0.5018618
inclination: 49.5523°
perigee height: 311 km
apogee height: 13789 km
right ascension of ascending node: 138.1655°
argument of perigee: 275.5821°
revolutions per day: 5.57923045
mean anomaly at epoch: 33.2048°
orbit number at epoch: 13377

The dashed part of the orbit path shows where the satellite is in the earth's shadow,  

DLR